Regional Weather Roundup
Issued by NWS

Home | Current Version | Previous Version | Graphics & Text | Print | Product List | Glossary Off
Versions: 1 2 3 4 5 6 7 8 9 10 11 12 13 14 15 16 17 18 19 20 21 22 23 24 25 26 27 28 29 30 31 32 33 34 35 36 37 38 39 40 41 42 43 44 45 46 47 48 49 50

607
ASUS43 KMKX 271911
RWRWI

WISCONSIN REGIONAL WEATHER ROUNDUP
NATIONAL WEATHER SERVICE MILWAUKEE/SULLIVAN WI
200 PM CDT MON MAR 27 2017

NOTE: "FAIR" INDICATES FEW OR NO CLOUDS BELOW 12,000 FEET WITH NO
SIGNIFICANT WEATHER AND/OR OBSTRUCTIONS TO VISIBILITY.

WIZ001-002-006>008-014>016-023>028-272000-
NORTHWEST WISCONSIN

CITY           SKY/WX    TMP DP  RH WIND       PRES   REMARKS
SUPERIOR ARPT  CLOUDY    46  35  65 CALM      29.99S
ASHLAND        PTSUNNY   49  36  61 N6        29.98S
HAYWARD        CLOUDY    55  30  38 N7        29.94F
SIREN          CLOUDY    53  34  47 NW3       29.96F
CUMBERLAND     PTSUNNY   50  32  50 NE5       29.95F
RICE LAKE      SUNNY     49  36  61 CALM      29.97F
CHETEK         CLOUDY    46  37  71 CALM      29.97R
LADYSMITH      CLOUDY    47  37  70 NE5       29.97S
EAU CLAIRE     CLOUDY    43  36  76 N6        29.96S
MENOMONIE      CLOUDY    45  37  72 NW3       29.98S
NEW RICHMOND   PTSUNNY   52  36  55 NE5       29.96F
OSCEOLA        MOSUNNY   54  36  49 NW9       29.98F
$$

WIZ003>005-009-010-017-018-272000-
NORTH CENTRAL WISCONSIN

CITY           SKY/WX    TMP DP  RH WIND       PRES   REMARKS
MANITOWISH WTR PTSUNNY   42  35  75 SE3       29.94S
ARBOR VITAE    CLOUDY    43  34  71 CALM      29.94S
WOODRUFF       CLOUDY    43  34  71 CALM      29.94S
RHINELANDER    CLOUDY    42  36  79 VRB3      29.95S
EAGLE RIVER    CLOUDY    43  33  68 NE6       29.94S
LAND O LAKES   CLOUDY    39  34  81 CALM      29.96F
PHILLIPS       CLOUDY    44  34  68 N5        29.94F
TOMAHAWK       CLOUDY    41  36  84 N6        29.95S
MEDFORD        CLOUDY    39  35  86 NE3       29.94S
MERRILL        CLOUDY    40  38  91 NE5       29.95F
$$

WIZ029-030-035-036-043>047-272000-
CENTRAL WISCONSIN

CITY           SKY/WX    TMP DP  RH WIND       PRES   REMARKS
WAUSAU         CLOUDY    41  36  82 CALM      29.94S
MOSINEE        CLOUDY    39  37  93 VRB5      29.96S
MARSHFIELD     CLOUDY    41  36  82 VRB3      29.94S
STEVENS POINT  CLOUDY    39  38  97 CALM      29.96S
WAUPACA        CLOUDY    46  40  81 CALM      29.96S
WAUTOMA        CLOUDY    45  41  87 CALM      29.95F
WISC RAPIDS    CLOUDY    44  40  85 N6        29.96S
CAMP DOUGLAS   CLOUDY    46  43  87 N6        29.94F
$$

WIZ011>013-019>022-031-037>040-048>050-272000-
NORTHEAST WISCONSIN

CITY           SKY/WX    TMP DP  RH WIND       PRES   REMARKS
ANTIGO         CLOUDY    39  36  89 CALM      29.95S
SHAWANO        CLOUDY    43  37  80 CALM      29.96S
OCONTO         CLOUDY    38  33  81 E3        29.97S
STURGEON BAY   CLOUDY    38  34  85 N6        29.94R WCI  33
GREEN BAY      CLOUDY    43  37  79 CALM      29.96S
MANITOWOC      CLOUDY    40  37  89 E3        29.96F
APPLETON       CLOUDY    43  39  87 CALM      29.94S
CLINTONVILLE   CLOUDY    43  37  81 CALM      29.96S
OSHKOSH        CLOUDY    45  39  79 W3        29.94S
$$

WIZ032>034-041-042-053>061-272000-
SOUTHWEST WISCONSIN

CITY           SKY/WX    TMP DP  RH WIND       PRES   REMARKS
LA CROSSE      CLOUDY    48  41  76 CALM      29.96S
SPARTA         CLOUDY    47  41  80 CALM      29.96F
VIROQUA        CLOUDY    45  42  89 CALM      29.94F
BOSCOBEL       CLOUDY    49  42  77 N3        29.95F
PRAIRIE DU CHI CLOUDY    45  44  95 CALM      29.95F FOG
PLATTEVILLE    CLOUDY    47  46  93 N5        29.94F
$$

WIZ056-057-062-063-064-067-068-272000-
SOUTH CENTRAL WISCONSIN

CITY           SKY/WX    TMP DP  RH WIND       PRES   REMARKS
REEDSBURG      CLOUDY    44  44  97 CALM      29.94F
BARABOO/DELLS  CLOUDY    44  41  90 CALM      29.94F FOG
LONE ROCK      CLOUDY    48  42  80 CALM      29.95F
MINERAL POINT  CLOUDY    46  45  93 CALM      29.93F
MADISON        CLOUDY    47  41  80 N6        29.94S
MIDDLETON      CLOUDY    47  43  85 N6        29.95S
WATERTOWN      CLOUDY    47  42  84 CALM      29.93F
MONROE         CLOUDY    46  43  87 E3        29.93S
JANESVILLE     CLOUDY    50  45  81 NE3       29.83F
$$

WIZ051-052-058>065-066-070>072-272000-
SOUTHEAST WISCONSIN

CITY           SKY/WX    TMP DP  RH WIND       PRES   REMARKS
MILWAUKEE      CLOUDY    45  39  79 E7        29.94F
WAUKESHA       CLOUDY    45  39  81 CALM      29.95S
MILWAUKEE/TIMM CLOUDY    43  37  81 E5        29.95S
RACINE         CLOUDY    44  38  79 E7        29.96S
KENOSHA        CLOUDY    45  40  82 NE6       29.94F
FOND DU LAC    CLOUDY    47  39  74 N5        29.94S
SHEBOYGAN      CLOUDY    42  38  85 NE6       29.95R
WEST BEND      CLOUDY    45  41  87 CALM      29.94S
JUNEAU         CLOUDY    45  40  82 CALM      29.95S
$$

LSZ147-162-272000-
LAKE SUPERIOR

STATION/POSITION TIME  TEMP    WIND        PRES    WAVE
                       AIR SEA DIR/SP/G            HT/PER
                 (UTC) (F)     (DEG/KT/KT) (MB)    (FT/S)
DEVILS ISLAND    1800   34     240/  7/  8 1016.6R
PORT WING        1840   37      30/  3/  4 1015.9S
SAXON HARBOR     1840   37      50/  4/  5 1015.6S
$$

LMZ867-665-643>646-272000-
LAKE MICHIGAN

STATION/POSITION TIME  TEMP    WIND        PRES    WAVE
                       AIR SEA DIR/SP/G            HT/PER
                 (UTC) (F)     (DEG/KT/KT) (MB)    (FT/S)
CHAMBERS ISLAND  1840   38      30/  2/  4 1014.6R
NORTHPORT PIER   1840   36     320/  5/  7 1014.6F
SISTER BAY       1806   36     340/  8/  9   N/A
KEWAUNEE LAKESHO 1848   36     170/  1/  3   N/A
SHEBOYGAN LAKESH 1900   37      40/  3/  3 1014.8R
PORT WASHINGTON  1840   42     180/  4/  6 1015.2S
MILWAUKEE LAKESH 1850   39     110/  3/  3   N/A
KENOSHA   LAKESH 1900   40     150/  4/  5 1013.9
$$

TC  - TEMPERATURE IN CELSIUS
VSB - VISIBILITY IN STATUTE MILES
WCI - WIND CHILL INDEX
HX  - HEAT INDEX





USA.gov is the U.S. government's official web portal to all federal, state and local government web resources and services.